ONEWEB-0060 (45455 NORAD) Tracking and Keplerian Element Data

This shows tracking and keplerian element data for the satellite.

Feedback or suggestion? Click here.




ElementValue
Catalog45455
NameONEWEB-0060
Epoch Orbit159
Epoch Day93.91667824
Epoch Year2020
RAAN134.6084
Inclination87.4019
Eccentricity0.0022133
Argument of Perigee259.7068
Mean Anonmoly179.5979
Mean Motion15.34391735
Decay Rate0.00040068
L11 45455U 20020AH 20093.91667824 .00040068 00000-0 11893-2 0 9996
L22 45455 87.4019 134.6084 0022133 259.7068 179.5979 15.34391735 1591

Live tracking and technical data element details for ONEWEB-0060 (NORAD 45455). ONEWEB-0060 can be tracked NOW for your location showing map with azimuth and elevation plus other details from your city location.

Track the satellite on the map from your city or location and see movement details for azimuth, elevation, latitude, longitude, range, height, and movement on the map or in text.







IsCatalogInMostPopularTable: catalog: 45455, numindb: 3
Update: records affected: 1



GetName: 45455 ONEWEB-0060

Hit Count: updated at: Mon, 06 Apr 2020 11:06:46 GMT